Vertical_Velocity
-3 -3 -4 -5 -4 -1 -1 -2 -3 -7 -3 -6 -6 -5 -8 -7 -6 -5 -5 -4 -3 -1 1 -3 3 -0 -1
-5 -4 -4 2 3 5 -1 -4 1 -4 -1 -2 -4 -4 -4 -5 -3 -5 0 -2 -3 -4 -1 -2 -3 -2 -1
-3 -0 -3 3 -0 -1 -1 1 -4 -8 -4 -7 -4 -4 -5 -5 -4 4 -0 -2 -2 -2 -0 -0 -0 -1 -1
2 -0 2 -3 -1 4 9 -7 -3 -11 -2 -5 -6 -7 -10 -7 1 -1 -1 -1 -0 -1 -0 -0 -2 -1 -2
-2 -3 -4 -3 1 -3 -1 0 3 -4 3 -8 2 -9 -9 -6 -1 -2 -2 -2 -2 -0 -3 -3 -1 1 1
-4 -3 -1 1 -2 -2 -2 2 10 -1 9 4 -4 -5 -6 -2 1 1 -2 -2 -3 -1 0 -1 -1 -2 -1
2 1 1 -2 -1 0 -4 -1 -8 -16 -10 12 3 2 -8 1 2 2 0 -1 -1 -1 -1 -0 -0 -1 -1
-3 -1 -2 -4 -5 -4 -2 1 -3 -6 -9 7 -9 -1 -2 -5 3 2 1 -1 -1 -1 -2 -1 -1 -2 -2
-4 -6 -6 -6 -7 -1 -4 -8 -3 3 -3 2 -7 8 -4 -7 0 6 0 1 -1 -0 -1 -2 -1 -0 -2
-9 -8 -6 -6 -6 -7 -9 -2 -5 6 -7 7 -1 -11 15 -5 -7 -7 3 2 0 -0 -1 -1 -3 1 1
-1 -3 -6 -7 -8 -8 -6 -6 -5 -2 -10 -5 4 4 -4 8 -6 -5 -3 1 0 -1 0 -1 -1 -2 3
-2 -1 2 -2 -6 -5 -5 -2 -4 -5 -2 -3 3 -0 2 2 1 -5 -1 -1 -1 -1 2 0 -2 1 -2
-0 -2 -4 -5 -5 1 1 0 -0 -5 -7 -5 1 3 -3 -0 6 -1 5 -5 -4 0 -2 -3 1 -1 1
-2 -5 -2 -3 -1 -2 -1 1 3 -2 -9 -8 -1 -0 3 -4 1 5 -1 4 -5 -2 1 -3 -5 1 1
-6 -5 -3 1 2 -2 -1 -0 -2 -1 2 -6 -8 -1 -4 -0 1 1 5 -1 3 0 3 2 -8 1 -2
-6 -5 -2 -1 -2 1 -1 -4 -1 0 -0 -2 -0 1 -4 -11 -6 2 5 5 0 -1 1 10 -1 -6 -0
-4 -4 -4 -1 -2 -2 -3 -4 -1 -3 -3 -1 -0 1 4 1 -5 -13 10 -3 2 -4 -1 -1 3 -2 -0
Height
5701 5698 5694 5688 5684 5678 5672 5665 5658 5651 5644 5636 5628 5619 5610 5599 5588 5575 5561 5548 5533 5519 5506 5495 5486 5477 5473
5691 5686 5682 5678 5672 5665 5658 5650 5642 5636 5626 5616 5608 5597 5585 5572 5558 5541 5527 5512 5499 5487 5478 5469 5462 5457 5453
5680 5675 5670 5666 5659 5651 5642 5633 5623 5615 5605 5593 5583 5571 5558 5544 5526 5510 5495 5482 5472 5465 5459 5454 5449 5444 5440
5668 5663 5658 5651 5644 5638 5628 5616 5606 5596 5583 5568 5558 5542 5528 5512 5498 5484 5471 5461 5456 5451 5448 5444 5439 5434 5428
5657 5650 5644 5638 5630 5621 5613 5603 5588 5578 5565 5542 5533 5513 5498 5485 5473 5461 5453 5448 5445 5442 5437 5433 5428 5424 5419
5645 5639 5631 5624 5615 5605 5596 5584 5575 5556 5546 5522 5506 5488 5475 5465 5455 5447 5442 5439 5436 5432 5427 5423 5419 5414 5410
5632 5625 5616 5607 5599 5589 5576 5562 5547 5533 5524 5504 5484 5467 5455 5449 5443 5438 5434 5431 5426 5422 5418 5414 5410 5406 5401
5616 5607 5598 5590 5581 5569 5557 5544 5526 5506 5492 5481 5465 5452 5440 5435 5433 5429 5425 5421 5417 5413 5409 5406 5402 5397 5393
5600 5592 5583 5572 5561 5549 5534 5520 5506 5487 5472 5461 5450 5442 5429 5423 5422 5421 5417 5413 5408 5405 5401 5397 5393 5389 5385
5585 5575 5564 5552 5539 5526 5513 5497 5482 5472 5459 5453 5437 5427 5425 5416 5412 5409 5407 5404 5400 5397 5393 5390 5386 5382 5378
5569 5557 5545 5532 5519 5503 5487 5474 5463 5454 5444 5438 5428 5419 5413 5411 5405 5400 5397 5395 5392 5389 5385 5382 5377 5373 5371
5553 5541 5529 5514 5497 5482 5468 5458 5448 5442 5434 5423 5416 5410 5406 5403 5398 5393 5389 5386 5383 5380 5377 5374 5369 5365 5362
5537 5525 5510 5495 5481 5469 5457 5448 5438 5428 5420 5412 5405 5401 5397 5394 5391 5386 5383 5379 5375 5372 5369 5365 5360 5356 5353
5520 5506 5492 5478 5465 5455 5447 5438 5429 5418 5409 5402 5396 5392 5389 5385 5381 5378 5374 5372 5368 5364 5361 5357 5351 5347 5344
5501 5489 5477 5465 5453 5442 5435 5428 5419 5411 5401 5393 5388 5383 5379 5376 5373 5368 5367 5364 5361 5358 5354 5350 5343 5338 5335
5483 5472 5462 5451 5441 5433 5425 5417 5408 5400 5393 5387 5382 5378 5372 5366 5361 5359 5358 5356 5353 5349 5346 5342 5336 5329 5326
5468 5457 5447 5438 5430 5422 5414 5405 5397 5390 5383 5377 5373 5369 5366 5362 5357 5349 5350 5347 5345 5340 5336 5332 5329 5322 5318